Location: Allison Elementary School
(34.0784°N, 117.7317°W)
Time: 11:17:55
(UTC+00:00)

Cosmos 1697 Rocket - Pass Details

Date: 15 November 2019
Orbit: 834 x 842 km, 71.0° (Epoch: 11 December)

Event Time Altitude Azimuth Distance (km) Brightness Sun altitude
Exits shadow 11:17:54 27° 73° (ENE) 1,541 4.5 -38.4°
Drops below altitude 10° 11:22:02 10° 119° (ESE) 2,438 5.6 -37.6°
Sets 11:24:47 0° 131° (SE) 3,367 6.4 -37.0°
